Luke — WDC9569 — position and weather

sailwx.info

Track history (hours):
 
Tides and Currents Weather Stations Pressure Air Temp Water Temp Dewpoint Dewpoint Depression Visibility Wind Speed Wind Dir Waves Ship Positions

Luke

Owner: SO CAL SHIP SERVICES, INC, TERMINAL ISLAND, CA. More information available from US FCC via Universal Licensing System and Coast Guard Vessel Documentation Center.

Last reported at 2018-Jun-22 13:30 UTC. Time now 2018-Jun-22 13:30 UTC.
Position N 33°40' W 118°12'.

Length 31 m; draft 2.4 m.

Type: Ship (hazmat cat B). MMSI: 367104040.

Date/timePositionNaut miles runAvg speedWind from/ knotsBaromVisibWave heightAir tempDewpointWater temp
2018-Jun-22 13:30N 33°40' W 118°12'713.7
2018-Jun-22 13:00N 33°34' W 118°07'511.1
2018-Jun-22 12:30N 33°38' W 118°11'714.4
2018-Jun-22 12:00N 33°44' W 118°16'0 0.5
2018-Jun-22 11:30N 33°44' W 118°16'0 0.0
2018-Jun-22 02:46N 33°44' W 118°16'0 0.0
2018-Jun-22 02:30N 33°44' W 118°16'0 0.0
2018-Jun-22 02:00N 33°44' W 118°16'3 6.2
2018-Jun-22 01:30N 33°42' W 118°14'816.6
2018-Jun-22 01:00N 33°35' W 118°08'1 2.9
2018-Jun-22 00:30N 33°34' W 118°07'510.6
2018-Jun-22 00:00N 33°38' W 118°11'714.3
2018-Jun-21 23:30N 33°44' W 118°16'1 1.1
2018-Jun-21 23:00N 33°44' W 118°16'0 0.0
2018-Jun-21 22:30N 33°44' W 118°16'0 0.0
2018-Jun-21 22:00N 33°44' W 118°16'1 1.5
2018-Jun-21 21:31N 33°43' W 118°16'816.5
2018-Jun-21 21:00N 33°37' W 118°10'3 5.0
2018-Jun-21 20:29N 33°35' W 118°08'714.7
2018-Jun-21 19:59N 33°41' W 118°13'4 9.2
2018-Jun-21 19:30N 33°44' W 118°16'0 0.0
2018-Jun-21 19:00N 33°44' W 118°16'0 0.0
2018-Jun-21 18:30N 33°44' W 118°16'0 0.0
2018-Jun-21 18:00N 33°44' W 118°16'0 0.0
2018-Jun-21 17:30N 33°44' W 118°16'0 0.7
2018-Jun-21 17:00N 33°44' W 118°16'1 1.6
2018-Jun-21 16:30N 33°43' W 118°16'816.3
2018-Jun-21 16:00N 33°37' W 118°10'3 6.5
2018-Jun-21 15:30N 33°34' W 118°07'612.8
2018-Jun-21 15:01N 33°39' W 118°12'611.9
2018-Jun-21 14:29N 33°44' W 118°16'0 0.2
2018-Jun-21 14:00N 33°44' W 118°16'713.7
2018-Jun-21 13:30N 33°39' W 118°11'611.8
2018-Jun-21 13:00N 33°34' W 118°07'510.9
2018-Jun-21 12:30N 33°38' W 118°11'714.2
2018-Jun-21 12:01N 33°44' W 118°16'0 0.0
2018-Jun-21 02:04N 33°44' W 118°16'0 0.0
2018-Jun-21 02:00N 33°44' W 118°16'1 2.4
2018-Jun-21 01:30N 33°43' W 118°16'816.6
2018-Jun-21 01:00N 33°37' W 118°09'3 6.7
2018-Jun-21 00:30N 33°34' W 118°07'510.5
2018-Jun-20 23:59N 33°38' W 118°10'715.1
2018-Jun-20 23:30N 33°44' W 118°16'0 0.8
2018-Jun-20 23:00N 33°44' W 118°16'0 0.0
2018-Jun-20 22:30N 33°44' W 118°16'0 0.0
2018-Jun-20 22:00N 33°44' W 118°16'611.7
2018-Jun-20 21:30N 33°39' W 118°12'713.7
2018-Jun-20 21:00N 33°34' W 118°07'1 2.3
2018-Jun-20 20:29N 33°35' W 118°08'613.7
2018-Jun-20 20:00N 33°40' W 118°12'510.3
2018-Jun-20 19:30N 33°44' W 118°16'0 0.0
2018-Jun-20 19:00N 33°44' W 118°16'0 0.0
2018-Jun-20 18:30N 33°44' W 118°16'0 0.0
2018-Jun-20 18:00N 33°44' W 118°16'0 0.0
2018-Jun-20 17:30N 33°44' W 118°16'0 0.0
2018-Jun-20 17:00N 33°44' W 118°16'1 1.5
2018-Jun-20 16:30N 33°43' W 118°16'816.0
2018-Jun-20 16:00N 33°37' W 118°10'3 5.8
2018-Jun-20 15:30N 33°35' W 118°08'611.6
2018-Jun-20 15:00N 33°39' W 118°12'611.2
2018-Jun-20 14:29N 33°44' W 118°16'0 0.3
2018-Jun-20 14:00N 33°44' W 118°16'713.7
2018-Jun-20 13:31N 33°39' W 118°11'510.5
2018-Jun-20 13:00N 33°34' W 118°07'4 8.9
2018-Jun-20 12:30N 33°38' W 118°11'715.3
2018-Jun-20 12:01N 33°44' W 118°16'0 0.9
2018-Jun-20 11:30N 33°44' W 118°16'0 0.0
2018-Jun-20 11:00N 33°44' W 118°16'0 0.0
2018-Jun-20 10:30N 33°44' W 118°16'0 0.0
2018-Jun-20 10:00N 33°44' W 118°16'0 0.0
2018-Jun-20 09:30N 33°44' W 118°16'0 0.0
2018-Jun-20 09:00N 33°44' W 118°16'0 0.0
2018-Jun-20 08:30N 33°44' W 118°16'0 0.0
2018-Jun-20 08:00N 33°44' W 118°16'0 0.0
2018-Jun-20 07:30N 33°44' W 118°16'0 0.0
2018-Jun-20 07:00N 33°44' W 118°16'0 0.0
2018-Jun-20 06:30N 33°44' W 118°16'0 0.0
2018-Jun-20 05:58N 33°44' W 118°16'0 0.0
2018-Jun-20 05:27N 33°44' W 118°16'0 0.0
2018-Jun-20 05:00N 33°44' W 118°16'0 0.0
2018-Jun-20 04:30N 33°44' W 118°16'0 0.0
2018-Jun-20 04:00N 33°44' W 118°16'0 0.0
2018-Jun-20 03:29N 33°44' W 118°16'0 0.0
2018-Jun-20 03:00N 33°44' W 118°16'0 0.0
2018-Jun-20 02:30N 33°44' W 118°16'0 0.0
2018-Jun-20 02:00N 33°44' W 118°16'1 2.7
2018-Jun-20 01:31N 33°43' W 118°16'916.9
2018-Jun-20 01:00N 33°36' W 118°09'3 5.1
2018-Jun-20 00:26N 33°34' W 118°07'511.2
2018-Jun-20 00:00N 33°38' W 118°10'815.5
2018-Jun-19 23:30N 33°44' W 118°16'1 1.1
2018-Jun-19 23:00N 33°44' W 118°16'0 0.0
2018-Jun-19 22:30N 33°44' W 118°16'0 0.7
2018-Jun-19 22:00N 33°44' W 118°16'3 5.5
2018-Jun-19 21:30N 33°42' W 118°14'816.9
2018-Jun-19 21:00N 33°35' W 118°08'1 1.7
2018-Jun-19 20:30N 33°36' W 118°09'816.6
2018-Jun-19 20:00N 33°42' W 118°15'2 4.4
2018-Jun-19 19:30N 33°44' W 118°16'0 0.0
2018-Jun-19 19:01N 33°44' W 118°16'0 0.0
2018-Jun-18 11:41N 33°44' W 118°16'0 0.0
2018-Jun-17 15:33N 33°44' W 118°16'0 0.0
2018-Jun-17 15:30N 33°44' W 118°16'0 0.0
2018-Jun-17 15:00N 33°44' W 118°16'0 0.0
2018-Jun-17 14:31N 33°44' W 118°16'5 9.8
2018-Jun-17 14:00N 33°41' W 118°12'713.4
2018-Jun-17 13:30N 33°35' W 118°08'0 0.0
2018-Jun-17 12:59N 33°35' W 118°08'613.3
2018-Jun-17 12:30N 33°40' W 118°12'510.7
2018-Jun-17 12:00N 33°44' W 118°16'0 0.0
2018-Jun-17 11:30N 33°44' W 118°16'0 0.0
2018-Jun-17 01:45N 33°44' W 118°16'1 5.8
2018-Jun-17 01:30N 33°43' W 118°15'816.0
2018-Jun-17 01:00N 33°37' W 118°09'3 5.6
2018-Jun-17 00:30N 33°34' W 118°07'510.5
2018-Jun-17 00:00N 33°39' W 118°11'713.8
2018-Jun-16 23:30N 33°44' W 118°16'0 0.6
2018-Jun-16 23:01N 33°44' W 118°16'0 0.0
2018-Jun-16 22:31N 33°44' W 118°16'0 0.0
2018-Jun-16 22:01N 33°44' W 118°16'611.2
2018-Jun-16 21:30N 33°40' W 118°12'6 6.0
2018-Jun-16 20:31N 33°35' W 118°08'0 1.5
2018-Jun-16 20:27N 33°35' W 118°08'715.2
2018-Jun-16 20:00N 33°40' W 118°13'5 9.9
2018-Jun-16 19:31N 33°44' W 118°16'3 5.6
2018-Jun-16 19:00N 33°42' W 118°14'816.5
2018-Jun-16 18:30N 33°35' W 118°08'2 3.5
2018-Jun-16 18:00N 33°34' W 118°07'0 0.0
2018-Jun-16 17:30N 33°34' W 118°07'0 0.0
2018-Jun-16 17:00N 33°34' W 118°07'1 2.4
2018-Jun-16 16:28N 33°35' W 118°08'0 0.1
2018-Jun-16 15:59N 33°35' W 118°08'611.6
2018-Jun-16 15:30N 33°39' W 118°12'612.0
2018-Jun-16 15:00N 33°44' W 118°16'0 0.1
2018-Jun-16 14:30N 33°44' W 118°16'0 0.9
2018-Jun-16 14:00N 33°44' W 118°16'815.3
2018-Jun-16 13:29N 33°37' W 118°10'3 7.3
2018-Jun-16 13:00N 33°35' W 118°08'713.2
2018-Jun-16 12:30N 33°40' W 118°12'510.5
2018-Jun-16 12:00N 33°44' W 118°16'0 0.0
2018-Jun-16 11:30N 33°44' W 118°16'0 0.0
2018-Jun-16 02:07N 33°44' W 118°16'0 0.2
2018-Jun-16 02:00N 33°44' W 118°16'4 8.2
2018-Jun-16 01:30N 33°41' W 118°13'814.9
2018-Jun-16 01:00N 33°35' W 118°08'1 2.8
2018-Jun-16 00:30N 33°34' W 118°07'612.2
2018-Jun-16 00:01N 33°39' W 118°11'713.6
2018-Jun-15 23:30N 33°44' W 118°16'0 0.1
2018-Jun-15 23:01N 33°44' W 118°16'1 1.8
2018-Jun-15 22:30N 33°43' W 118°16'815.8
2018-Jun-15 22:00N 33°37' W 118°10'4 7.9
2018-Jun-15 21:29N 33°34' W 118°07'3 5.6
2018-Jun-15 20:59N 33°37' W 118°08'714.2
2018-Jun-15 20:31N 33°43' W 118°08'4 7.5
2018-Jun-15 20:00N 33°44' W 118°12'4 7.1
2018-Jun-15 19:30N 33°44' W 118°16'0 0.0
2018-Jun-15 19:00N 33°44' W 118°16'0 0.0
2018-Jun-15 18:30N 33°44' W 118°16'0 0.0
2018-Jun-15 18:00N 33°44' W 118°16'0 0.7
2018-Jun-15 17:30N 33°44' W 118°17'0 0.4
2018-Jun-15 17:00N 33°44' W 118°16'713.4
2018-Jun-15 16:31N 33°39' W 118°11'611.3
2018-Jun-15 16:00N 33°34' W 118°07'1 1.6
2018-Jun-15 15:29N 33°35' W 118°08'613.1
2018-Jun-15 15:01N 33°40' W 118°13'510.6
2018-Jun-15 14:30N 33°44' W 118°16'0 0.8
2018-Jun-15 14:00N 33°44' W 118°16'815.4
2018-Jun-15 13:30N 33°38' W 118°11'3 5.4
2018-Jun-15 12:56N 33°35' W 118°08'716.4
2018-Jun-15 12:31N 33°41' W 118°13'4 8.1
2018-Jun-15 11:59N 33°44' W 118°16'0 0.0
2018-Jun-15 02:09N 33°44' W 118°16'0 0.0
2018-Jun-15 02:00N 33°44' W 118°16'3 5.8
2018-Jun-15 01:30N 33°42' W 118°14'815.6
2018-Jun-15 01:00N 33°36' W 118°08'2 4.4
2018-Jun-15 00:30N 33°34' W 118°07'612.3
2018-Jun-15 00:01N 33°39' W 118°11'713.4
2018-Jun-14 23:30N 33°44' W 118°16'0 0.0
2018-Jun-14 23:00N 33°44' W 118°16'0 0.0
2018-Jun-14 22:30N 33°44' W 118°16'0 0.0
2018-Jun-14 21:58N 33°44' W 118°16'4 8.7
2018-Jun-14 21:30N 33°41' W 118°13'714.8
2018-Jun-14 21:00N 33°35' W 118°08'0 0.2
2018-Jun-14 20:30N 33°35' W 118°08'714.4
2018-Jun-14 20:00N 33°41' W 118°13'4 8.9
2018-Jun-14 19:30N 33°44' W 118°16'0 0.0
2018-Jun-14 19:00N 33°44' W 118°16'0 0.0
2018-Jun-14 18:29N 33°44' W 118°16'0 0.0
2018-Jun-14 18:00N 33°44' W 118°16'0 0.0
2018-Jun-14 17:30N 33°44' W 118°16'0 0.0
2018-Jun-14 17:00N 33°44' W 118°16'2 4.9
2018-Jun-14 16:30N 33°42' W 118°14'816.3
2018-Jun-14 16:00N 33°36' W 118°08'1 2.2
2018-Jun-14 15:30N 33°35' W 118°08'612.0
2018-Jun-14 15:00N 33°40' W 118°11'611.7
2018-Jun-14 14:30N 33°44' W 118°16'0 0.2
2018-Jun-14 14:01N 33°44' W 118°16'612.9
2018-Jun-14 13:30N 33°39' W 118°11'612.5
2018-Jun-14 13:00N 33°34' W 118°07'611.8
2018-Jun-14 12:30N 33°38' W 118°12'713.9
2018-Jun-14 12:00N 33°44' W 118°16'0 0.4
2018-Jun-14 11:30N 33°44' W 118°16'0 0.0
2018-Jun-14 01:48N 33°44' W 118°16'2 8.3
2018-Jun-14 01:30N 33°42' W 118°14'815.4
2018-Jun-14 01:00N 33°36' W 118°08'3 5.8
2018-Jun-14 00:30N 33°34' W 118°07'5 9.6
2018-Jun-14 00:00N 33°38' W 118°10'816.0
2018-Jun-13 23:30N 33°44' W 118°16'0 0.8
2018-Jun-13 23:00N 33°44' W 118°16'0 0.0
2018-Jun-13 22:30N 33°44' W 118°16'0 0.0
2018-Jun-13 22:00N 33°44' W 118°16'1 1.5
2018-Jun-13 21:30N 33°43' W 118°16'815.6
2018-Jun-13 21:00N 33°37' W 118°10'3 5.3
2018-Jun-13 20:24N 33°35' W 118°08'513.2
2018-Jun-13 20:00N 33°39' W 118°11'612.6
2018-Jun-13 19:30N 33°44' W 118°16'0 0.0
2018-Jun-13 19:00N 33°44' W 118°16'0 0.0
2018-Jun-13 18:30N 33°44' W 118°16'0 0.0
2018-Jun-13 18:00N 33°44' W 118°16'0 0.6
2018-Jun-13 17:30N 33°44' W 118°16'0 0.2
2018-Jun-13 17:00N 33°44' W 118°16'0 0.3
2018-Jun-13 16:30N 33°44' W 118°16'714.7
2018-Jun-13 16:00N 33°38' W 118°10'5 8.8
2018-Jun-13 15:29N 33°34' W 118°07'612.5
2018-Jun-13 15:00N 33°39' W 118°12'612.4
2018-Jun-13 14:30N 33°44' W 118°16'0 0.5
2018-Jun-13 14:00N 33°44' W 118°16'714.2
2018-Jun-13 13:30N 33°38' W 118°11'510.0
2018-Jun-13 12:59N 33°34' W 118°07'612.9
2018-Jun-13 12:30N 33°39' W 118°12'612.7
2018-Jun-13 12:00N 33°44' W 118°16'0 0.0
2018-Jun-13 02:02N 33°44' W 118°16'0 0.2
2018-Jun-13 02:01N 33°44' W 118°16'611.8
2018-Jun-13 01:30N 33°40' W 118°12'713.9
2018-Jun-13 01:00N 33°34' W 118°07'1 2.4
2018-Jun-13 00:30N 33°35' W 118°08'0 0.0
2018-Jun-12 23:59N 33°35' W 118°08'1 1.3
2018-Jun-12 23:30N 33°34' W 118°07'3 5.1
2018-Jun-12 23:00N 33°37' W 118°09'816.3
2018-Jun-12 22:30N 33°43' W 118°15'2 3.1
2018-Jun-12 22:00N 33°44' W 118°16'713.9
2018-Jun-12 21:30N 33°39' W 118°11'5 8.3
2018-Jun-12 20:57N 33°35' W 118°08'0 0.2
2018-Jun-12 20:30N 33°35' W 118°08'612.9
2018-Jun-12 20:00N 33°40' W 118°12'510.5
2018-Jun-12 19:30N 33°44' W 118°16'0 0.0
2018-Jun-12 19:00N 33°44' W 118°16'0 0.0
2018-Jun-12 18:30N 33°44' W 118°16'0 0.0
2018-Jun-12 18:00N 33°44' W 118°16'0 0.0
2018-Jun-12 17:30N 33°44' W 118°16'0 0.0
2018-Jun-12 17:00N 33°44' W 118°16'0 0.4
2018-Jun-12 16:30N 33°44' W 118°16'714.4
2018-Jun-12 16:00N 33°38' W 118°11'4 8.9
2018-Jun-12 15:30N 33°35' W 118°08'510.2
2018-Jun-12 15:00N 33°39' W 118°11'713.8
2018-Jun-12 14:31N 33°44' W 118°16'3 6.2
2018-Jun-12 14:00N 33°42' W 118°14'  
Track history (hours):
 
Tides and Currents Weather Stations Pressure Air Temp Water Temp Dewpoint Dewpoint Depression Visibility Wind Speed Wind Dir Waves Ship Positions

Luke

Owner: SO CAL SHIP SERVICES, INC, TERMINAL ISLAND, CA. More information available from US FCC via Universal Licensing System and Coast Guard Vessel Documentation Center.

Last reported at 2018-Jun-22 13:30 UTC. Time now 2018-Jun-22 13:30 UTC.
Position N 33°40' W 118°12'.

Length 31 m; draft 2.4 m.

Type: Ship (hazmat cat B). MMSI: 367104040.

Date/timePositionNaut miles runAvg speedWind from/ knotsBaromVisibWave heightAir tempDewpointWater temp
2018-Jun-22 13:30N 33°40' W 118°12'713.7
2018-Jun-22 13:00N 33°34' W 118°07'511.1
2018-Jun-22 12:30N 33°38' W 118°11'714.4
2018-Jun-22 12:00N 33°44' W 118°16'0 0.5
2018-Jun-22 11:30N 33°44' W 118°16'0 0.0
2018-Jun-22 02:46N 33°44' W 118°16'0 0.0
2018-Jun-22 02:30N 33°44' W 118°16'0 0.0
2018-Jun-22 02:00N 33°44' W 118°16'3 6.2
2018-Jun-22 01:30N 33°42' W 118°14'816.6
2018-Jun-22 01:00N 33°35' W 118°08'1 2.9
2018-Jun-22 00:30N 33°34' W 118°07'510.6
2018-Jun-22 00:00N 33°38' W 118°11'714.3
2018-Jun-21 23:30N 33°44' W 118°16'1 1.1
2018-Jun-21 23:00N 33°44' W 118°16'0 0.0
2018-Jun-21 22:30N 33°44' W 118°16'0 0.0
2018-Jun-21 22:00N 33°44' W 118°16'1 1.5
2018-Jun-21 21:31N 33°43' W 118°16'816.5
2018-Jun-21 21:00N 33°37' W 118°10'3 5.0
2018-Jun-21 20:29N 33°35' W 118°08'714.7
2018-Jun-21 19:59N 33°41' W 118°13'4 9.2
2018-Jun-21 19:30N 33°44' W 118°16'0 0.0
2018-Jun-21 19:00N 33°44' W 118°16'0 0.0
2018-Jun-21 18:30N 33°44' W 118°16'0 0.0
2018-Jun-21 18:00N 33°44' W 118°16'0 0.0
2018-Jun-21 17:30N 33°44' W 118°16'0 0.7
2018-Jun-21 17:00N 33°44' W 118°16'1 1.6
2018-Jun-21 16:30N 33°43' W 118°16'816.3
2018-Jun-21 16:00N 33°37' W 118°10'3 6.5
2018-Jun-21 15:30N 33°34' W 118°07'612.8
2018-Jun-21 15:01N 33°39' W 118°12'611.9
2018-Jun-21 14:29N 33°44' W 118°16'0 0.2
2018-Jun-21 14:00N 33°44' W 118°16'713.7
2018-Jun-21 13:30N 33°39' W 118°11'611.8
2018-Jun-21 13:00N 33°34' W 118°07'510.9
2018-Jun-21 12:30N 33°38' W 118°11'714.2
2018-Jun-21 12:01N 33°44' W 118°16'0 0.0
2018-Jun-21 02:04N 33°44' W 118°16'0 0.0
2018-Jun-21 02:00N 33°44' W 118°16'1 2.4
2018-Jun-21 01:30N 33°43' W 118°16'816.6
2018-Jun-21 01:00N 33°37' W 118°09'3 6.7
2018-Jun-21 00:30N 33°34' W 118°07'510.5
2018-Jun-20 23:59N 33°38' W 118°10'715.1
2018-Jun-20 23:30N 33°44' W 118°16'0 0.8
2018-Jun-20 23:00N 33°44' W 118°16'0 0.0
2018-Jun-20 22:30N 33°44' W 118°16'0 0.0
2018-Jun-20 22:00N 33°44' W 118°16'611.7
2018-Jun-20 21:30N 33°39' W 118°12'713.7
2018-Jun-20 21:00N 33°34' W 118°07'1 2.3
2018-Jun-20 20:29N 33°35' W 118°08'613.7
2018-Jun-20 20:00N 33°40' W 118°12'510.3
2018-Jun-20 19:30N 33°44' W 118°16'0 0.0
2018-Jun-20 19:00N 33°44' W 118°16'0 0.0
2018-Jun-20 18:30N 33°44' W 118°16'0 0.0
2018-Jun-20 18:00N 33°44' W 118°16'0 0.0
2018-Jun-20 17:30N 33°44' W 118°16'0 0.0
2018-Jun-20 17:00N 33°44' W 118°16'1 1.5
2018-Jun-20 16:30N 33°43' W 118°16'816.0
2018-Jun-20 16:00N 33°37' W 118°10'3 5.8
2018-Jun-20 15:30N 33°35' W 118°08'611.6
2018-Jun-20 15:00N 33°39' W 118°12'611.2
2018-Jun-20 14:29N 33°44' W 118°16'0 0.3
2018-Jun-20 14:00N 33°44' W 118°16'713.7
2018-Jun-20 13:31N 33°39' W 118°11'510.5
2018-Jun-20 13:00N 33°34' W 118°07'4 8.9
2018-Jun-20 12:30N 33°38' W 118°11'715.3
2018-Jun-20 12:01N 33°44' W 118°16'0 0.9
2018-Jun-20 11:30N 33°44' W 118°16'0 0.0
2018-Jun-20 11:00N 33°44' W 118°16'0 0.0
2018-Jun-20 10:30N 33°44' W 118°16'0 0.0
2018-Jun-20 10:00N 33°44' W 118°16'0 0.0
2018-Jun-20 09:30N 33°44' W 118°16'0 0.0
2018-Jun-20 09:00N 33°44' W 118°16'0 0.0
2018-Jun-20 08:30N 33°44' W 118°16'0 0.0
2018-Jun-20 08:00N 33°44' W 118°16'0 0.0
2018-Jun-20 07:30N 33°44' W 118°16'0 0.0
2018-Jun-20 07:00N 33°44' W 118°16'0 0.0
2018-Jun-20 06:30N 33°44' W 118°16'0 0.0
2018-Jun-20 05:58N 33°44' W 118°16'0 0.0
2018-Jun-20 05:27N 33°44' W 118°16'0 0.0
2018-Jun-20 05:00N 33°44' W 118°16'0 0.0
2018-Jun-20 04:30N 33°44' W 118°16'0 0.0
2018-Jun-20 04:00N 33°44' W 118°16'0 0.0
2018-Jun-20 03:29N 33°44' W 118°16'0 0.0
2018-Jun-20 03:00N 33°44' W 118°16'0 0.0
2018-Jun-20 02:30N 33°44' W 118°16'0 0.0
2018-Jun-20 02:00N 33°44' W 118°16'1 2.7
2018-Jun-20 01:31N 33°43' W 118°16'916.9
2018-Jun-20 01:00N 33°36' W 118°09'3 5.1
2018-Jun-20 00:26N 33°34' W 118°07'511.2
2018-Jun-20 00:00N 33°38' W 118°10'815.5
2018-Jun-19 23:30N 33°44' W 118°16'1 1.1
2018-Jun-19 23:00N 33°44' W 118°16'0 0.0
2018-Jun-19 22:30N 33°44' W 118°16'0 0.7
2018-Jun-19 22:00N 33°44' W 118°16'3 5.5
2018-Jun-19 21:30N 33°42' W 118°14'816.9
2018-Jun-19 21:00N 33°35' W 118°08'1 1.7
2018-Jun-19 20:30N 33°36' W 118°09'816.6
2018-Jun-19 20:00N 33°42' W 118°15'2 4.4
2018-Jun-19 19:30N 33°44' W 118°16'0 0.0
2018-Jun-19 19:01N 33°44' W 118°16'0 0.0
2018-Jun-18 11:41N 33°44' W 118°16'0 0.0
2018-Jun-17 15:33N 33°44' W 118°16'0 0.0
2018-Jun-17 15:30N 33°44' W 118°16'0 0.0
2018-Jun-17 15:00N 33°44' W 118°16'0 0.0
2018-Jun-17 14:31N 33°44' W 118°16'5 9.8
2018-Jun-17 14:00N 33°41' W 118°12'713.4
2018-Jun-17 13:30N 33°35' W 118°08'0 0.0
2018-Jun-17 12:59N 33°35' W 118°08'613.3
2018-Jun-17 12:30N 33°40' W 118°12'510.7
2018-Jun-17 12:00N 33°44' W 118°16'0 0.0
2018-Jun-17 11:30N 33°44' W 118°16'0 0.0
2018-Jun-17 01:45N 33°44' W 118°16'1 5.8
2018-Jun-17 01:30N 33°43' W 118°15'816.0
2018-Jun-17 01:00N 33°37' W 118°09'3 5.6
2018-Jun-17 00:30N 33°34' W 118°07'510.5
2018-Jun-17 00:00N 33°39' W 118°11'713.8
2018-Jun-16 23:30N 33°44' W 118°16'0 0.6
2018-Jun-16 23:01N 33°44' W 118°16'0 0.0
2018-Jun-16 22:31N 33°44' W 118°16'0 0.0
2018-Jun-16 22:01N 33°44' W 118°16'611.2
2018-Jun-16 21:30N 33°40' W 118°12'6 6.0
2018-Jun-16 20:31N 33°35' W 118°08'0 1.5
2018-Jun-16 20:27N 33°35' W 118°08'715.2
2018-Jun-16 20:00N 33°40' W 118°13'5 9.9
2018-Jun-16 19:31N 33°44' W 118°16'3 5.6
2018-Jun-16 19:00N 33°42' W 118°14'816.5
2018-Jun-16 18:30N 33°35' W 118°08'2 3.5
2018-Jun-16 18:00N 33°34' W 118°07'0 0.0
2018-Jun-16 17:30N 33°34' W 118°07'0 0.0
2018-Jun-16 17:00N 33°34' W 118°07'1 2.4
2018-Jun-16 16:28N 33°35' W 118°08'0 0.1
2018-Jun-16 15:59N 33°35' W 118°08'611.6
2018-Jun-16 15:30N 33°39' W 118°12'612.0
2018-Jun-16 15:00N 33°44' W 118°16'0 0.1
2018-Jun-16 14:30N 33°44' W 118°16'0 0.9
2018-Jun-16 14:00N 33°44' W 118°16'815.3
2018-Jun-16 13:29N 33°37' W 118°10'3 7.3
2018-Jun-16 13:00N 33°35' W 118°08'713.2
2018-Jun-16 12:30N 33°40' W 118°12'510.5
2018-Jun-16 12:00N 33°44' W 118°16'0 0.0
2018-Jun-16 11:30N 33°44' W 118°16'0 0.0
2018-Jun-16 02:07N 33°44' W 118°16'0 0.2
2018-Jun-16 02:00N 33°44' W 118°16'4 8.2
2018-Jun-16 01:30N 33°41' W 118°13'814.9
2018-Jun-16 01:00N 33°35' W 118°08'1 2.8
2018-Jun-16 00:30N 33°34' W 118°07'612.2
2018-Jun-16 00:01N 33°39' W 118°11'713.6
2018-Jun-15 23:30N 33°44' W 118°16'0 0.1
2018-Jun-15 23:01N 33°44' W 118°16'1 1.8
2018-Jun-15 22:30N 33°43' W 118°16'815.8
2018-Jun-15 22:00N 33°37' W 118°10'4 7.9
2018-Jun-15 21:29N 33°34' W 118°07'3 5.6
2018-Jun-15 20:59N 33°37' W 118°08'714.2
2018-Jun-15 20:31N 33°43' W 118°08'4 7.5
2018-Jun-15 20:00N 33°44' W 118°12'4 7.1
2018-Jun-15 19:30N 33°44' W 118°16'0 0.0
2018-Jun-15 19:00N 33°44' W 118°16'0 0.0
2018-Jun-15 18:30N 33°44' W 118°16'0 0.0
2018-Jun-15 18:00N 33°44' W 118°16'0 0.7
2018-Jun-15 17:30N 33°44' W 118°17'0 0.4
2018-Jun-15 17:00N 33°44' W 118°16'713.4
2018-Jun-15 16:31N 33°39' W 118°11'611.3
2018-Jun-15 16:00N 33°34' W 118°07'1 1.6
2018-Jun-15 15:29N 33°35' W 118°08'613.1
2018-Jun-15 15:01N 33°40' W 118°13'510.6
2018-Jun-15 14:30N 33°44' W 118°16'0 0.8
2018-Jun-15 14:00N 33°44' W 118°16'815.4
2018-Jun-15 13:30N 33°38' W 118°11'3 5.4
2018-Jun-15 12:56N 33°35' W 118°08'716.4
2018-Jun-15 12:31N 33°41' W 118°13'4 8.1
2018-Jun-15 11:59N 33°44' W 118°16'0 0.0
2018-Jun-15 02:09N 33°44' W 118°16'0 0.0
2018-Jun-15 02:00N 33°44' W 118°16'3 5.8
2018-Jun-15 01:30N 33°42' W 118°14'815.6
2018-Jun-15 01:00N 33°36' W 118°08'2 4.4
2018-Jun-15 00:30N 33°34' W 118°07'612.3
2018-Jun-15 00:01N 33°39' W 118°11'713.4
2018-Jun-14 23:30N 33°44' W 118°16'0 0.0
2018-Jun-14 23:00N 33°44' W 118°16'0 0.0
2018-Jun-14 22:30N 33°44' W 118°16'0 0.0
2018-Jun-14 21:58N 33°44' W 118°16'4 8.7
2018-Jun-14 21:30N 33°41' W 118°13'714.8
2018-Jun-14 21:00N 33°35' W 118°08'0 0.2
2018-Jun-14 20:30N 33°35' W 118°08'714.4
2018-Jun-14 20:00N 33°41' W 118°13'4 8.9
2018-Jun-14 19:30N 33°44' W 118°16'0 0.0
2018-Jun-14 19:00N 33°44' W 118°16'0 0.0
2018-Jun-14 18:29N 33°44' W 118°16'0 0.0
2018-Jun-14 18:00N 33°44' W 118°16'0 0.0
2018-Jun-14 17:30N 33°44' W 118°16'0 0.0
2018-Jun-14 17:00N 33°44' W 118°16'2 4.9
2018-Jun-14 16:30N 33°42' W 118°14'816.3
2018-Jun-14 16:00N 33°36' W 118°08'1 2.2
2018-Jun-14 15:30N 33°35' W 118°08'612.0
2018-Jun-14 15:00N 33°40' W 118°11'611.7
2018-Jun-14 14:30N 33°44' W 118°16'0 0.2
2018-Jun-14 14:01N 33°44' W 118°16'612.9
2018-Jun-14 13:30N 33°39' W 118°11'612.5
2018-Jun-14 13:00N 33°34' W 118°07'611.8
2018-Jun-14 12:30N 33°38' W 118°12'713.9
2018-Jun-14 12:00N 33°44' W 118°16'0 0.4
2018-Jun-14 11:30N 33°44' W 118°16'0 0.0
2018-Jun-14 01:48N 33°44' W 118°16'2 8.3
2018-Jun-14 01:30N 33°42' W 118°14'815.4
2018-Jun-14 01:00N 33°36' W 118°08'3 5.8
2018-Jun-14 00:30N 33°34' W 118°07'5 9.6
2018-Jun-14 00:00N 33°38' W 118°10'816.0
2018-Jun-13 23:30N 33°44' W 118°16'0 0.8
2018-Jun-13 23:00N 33°44' W 118°16'0 0.0
2018-Jun-13 22:30N 33°44' W 118°16'0 0.0
2018-Jun-13 22:00N 33°44' W 118°16'1 1.5
2018-Jun-13 21:30N 33°43' W 118°16'815.6
2018-Jun-13 21:00N 33°37' W 118°10'3 5.3
2018-Jun-13 20:24N 33°35' W 118°08'513.2
2018-Jun-13 20:00N 33°39' W 118°11'612.6
2018-Jun-13 19:30N 33°44' W 118°16'0 0.0
2018-Jun-13 19:00N 33°44' W 118°16'0 0.0
2018-Jun-13 18:30N 33°44' W 118°16'0 0.0
2018-Jun-13 18:00N 33°44' W 118°16'0 0.6
2018-Jun-13 17:30N 33°44' W 118°16'0 0.2
2018-Jun-13 17:00N 33°44' W 118°16'0 0.3
2018-Jun-13 16:30N 33°44' W 118°16'714.7
2018-Jun-13 16:00N 33°38' W 118°10'5 8.8
2018-Jun-13 15:29N 33°34' W 118°07'612.5
2018-Jun-13 15:00N 33°39' W 118°12'612.4
2018-Jun-13 14:30N 33°44' W 118°16'0 0.5
2018-Jun-13 14:00N 33°44' W 118°16'714.2
2018-Jun-13 13:30N 33°38' W 118°11'510.0
2018-Jun-13 12:59N 33°34' W 118°07'612.9
2018-Jun-13 12:30N 33°39' W 118°12'612.7
2018-Jun-13 12:00N 33°44' W 118°16'0 0.0
2018-Jun-13 02:02N 33°44' W 118°16'0 0.2
2018-Jun-13 02:01N 33°44' W 118°16'611.8
2018-Jun-13 01:30N 33°40' W 118°12'713.9
2018-Jun-13 01:00N 33°34' W 118°07'1 2.4
2018-Jun-13 00:30N 33°35' W 118°08'0 0.0
2018-Jun-12 23:59N 33°35' W 118°08'1 1.3
2018-Jun-12 23:30N 33°34' W 118°07'3 5.1
2018-Jun-12 23:00N 33°37' W 118°09'816.3
2018-Jun-12 22:30N 33°43' W 118°15'2 3.1
2018-Jun-12 22:00N 33°44' W 118°16'713.9
2018-Jun-12 21:30N 33°39' W 118°11'5 8.3
2018-Jun-12 20:57N 33°35' W 118°08'0 0.2
2018-Jun-12 20:30N 33°35' W 118°08'612.9
2018-Jun-12 20:00N 33°40' W 118°12'510.5
2018-Jun-12 19:30N 33°44' W 118°16'0 0.0
2018-Jun-12 19:00N 33°44' W 118°16'0 0.0
2018-Jun-12 18:30N 33°44' W 118°16'0 0.0
2018-Jun-12 18:00N 33°44' W 118°16'0 0.0
2018-Jun-12 17:30N 33°44' W 118°16'0 0.0
2018-Jun-12 17:00N 33°44' W 118°16'0 0.4
2018-Jun-12 16:30N 33°44' W 118°16'714.4
2018-Jun-12 16:00N 33°38' W 118°11'4 8.9
2018-Jun-12 15:30N 33°35' W 118°08'510.2
2018-Jun-12 15:00N 33°39' W 118°11'713.8
2018-Jun-12 14:31N 33°44' W 118°16'3 6.2
2018-Jun-12 14:00N 33°42' W 118°14'  

Dump ship's entire track history